Mount Juliet, Tennessee, United States (37121)
Lat: 36.20N, Lon: 86.52W
Wx Zone: TNZ028
Local Info
Past Weather Observations for Today

NOTE: This archive is for the closest National Weather Service station to Mount Juliet. Information may differ from the station used for current weather conditions.

Click here for Long-term Archive

Time Weather Temperature Dewpoint Humidity Pressure Winds Precip Visibility
15:53
Overcast
57°F / 14°C 46°F / 8°C 67% 29.83 in
(1010 mb)
NNW 3.5 mph
(NNW 6 kph)
- 10SM
14:53
Overcast
55°F / 13°C 46°F / 8°C 72% 29.83 in
(1010 mb)
NE 8.1 mph
(NE 13 kph)
- 10SM
14:40
Overcast
55°F / 13°C 46°F / 8°C 72% 29.83 in
(1010 mb)
N 6.9 mph
(N 11 kph)
- 10SM
13:53
Overcast
55°F / 13°C 48°F / 9°C 77% 29.83 in
(1010 mb)
N 8.1 mph
(N 13 kph)
- 10SM
12:53
Overcast
54°F / 12°C 48°F / 9°C 82% 29.83 in
(1010 mb)
N 6.9 mph
(N 11 kph)
- 10SM
11:53
Overcast
52°F / 11°C 46°F / 8°C 82% 29.83 in
(1010 mb)
NNW 9.2 mph
(NNW 15 kph)
- 9SM
10:53
Overcast
54°F / 12°C 48°F / 9°C 82% 29.83 in
(1010 mb)
NNW 8.1 mph
(NNW 13 kph)
- 10SM
09:53
Overcast
54°F / 12°C 48°F / 9°C 82% 29.83 in
(1010 mb)
N 10.4 mph
(N 17 kph)
- 8SM
09:45
Overcast
54°F / 12°C 48°F / 9°C 82% 29.83 in
(1010 mb)
N 9.2 mph
(N 15 kph)
- 8SM
09:29
Overcast
Fog And Mist
52°F / 11°C 48°F / 9°C 88% 29.83 in
(1010 mb)
N 10.4 mph
(N 17 kph)
- 6SM
08:53
Overcast
54°F / 12°C 48°F / 9°C 82% 29.8 in
(1009 mb)
N 10.4 mph
(N 17 kph)
- 7SM
08:00
Overcast
54°F / 12°C 50°F / 10°C 88% 29.77 in
(1008 mb)
NNW 11.5 mph
(NNW 19 kph)
- 9SM
07:53
Overcast
54°F / 12°C 50°F / 10°C 88% 29.77 in
(1008 mb)
NNW 10.4 mph
(NNW 17 kph)
- 9SM
06:53
Overcast
Fog And Mist
54°F / 12°C 52°F / 11°C 94% 29.74 in
(1007 mb)
N 10.4 mph
(N 17 kph)
- 6SM
05:53
Overcast
Fog And Mist
55°F / 13°C 54°F / 12°C 94% 29.71 in
(1006 mb)
N 9.2 mph
(N 15 kph)
0.00 in
(0.00 mm)
5SM
04:53
Overcast
Light Rain
57°F / 14°C 55°F / 13°C 94% 29.68 in
(1005 mb)
N 12.7 mph
(N 20 kph)
0.00 in
(0.00 mm)
4SM
03:53
Overcast
61°F / 16°C 59°F / 15°C 94% 29.65 in
(1004 mb)
NW 6.9 mph
(NW 11 kph)
- 10SM
03:19
Overcast
61°F / 16°C 59°F / 15°C 94% 29.65 in
(1004 mb)
NW 5.8 mph
(NW 9 kph)
- 10SM
02:53
Overcast
61°F / 16°C 59°F / 15°C 94% 29.62 in
(1003 mb)
WNW 5.8 mph
(WNW 9 kph)
- 10SM
01:53
Overcast
61°F / 16°C 59°F / 15°C 94% 29.62 in
(1003 mb)
NW 3.5 mph
(NW 6 kph)
- 10SM
00:53
Overcast
61°F / 16°C 59°F / 15°C 94% 29.62 in
(1003 mb)
Calm - 10SM
Time Weather Temperature Dewpoint Humidity Pressure Winds Precip Visibility


Weather for websites

WeatherForYou.com, LLC is not responsible for any damages or problems caused by this service. Current weather conditions are obtained from the closest station including government and personal stations which may have varying degrees of accuracy. Weather forecasts are derived from the NOAA NDFD. Like all things, this site belongs to Jesus Christ... He just trusts us to maintain it. If you have any questions or comments email webmaster@weatherforyou.com

Copyright © 2015, WeatherForYou.com LLC. All rights reserved.